Wind_Speed
30 32 34 21 24 31 31 30 27 26 27 29 29 27 25 22 21 19 20 19 19 17 15 13 13 14 16 21 24 34 33 25 21 23 29 29 21 18 14 7 15 16 19 17
36 37 30 27 31 33 33 32 24 23 25 28 31 25 15 17 18 20 22 20 19 13 13 11 12 12 19 26 33 39 37 22 12 11 11 16 19 20 13 12 13 14 17 19
39 35 31 35 35 30 35 34 26 24 27 27 26 20 18 13 16 22 20 17 18 15 15 15 14 11 16 25 32 37 44 28 15 16 18 13 20 19 17 19 19 23 27 27
36 36 37 40 38 35 38 32 29 27 25 25 19 23 18 16 16 20 17 19 18 16 18 16 16 13 11 21 32 36 45 35 23 18 20 18 24 23 24 21 22 27 33 35
39 39 40 41 36 35 37 32 32 28 24 24 17 21 22 18 14 11 15 16 16 17 21 23 23 19 15 13 28 35 42 41 32 31 24 25 28 30 28 31 34 38 41 41
44 42 38 40 36 38 35 33 33 28 25 24 20 20 21 17 13 10 12 13 12 19 18 20 22 19 16 13 19 25 38 46 39 34 33 29 32 31 31 32 35 35 34 37
48 40 43 41 40 41 40 35 32 30 27 26 21 23 22 19 17 16 12 9 6 12 12 18 24 20 16 14 18 21 25 40 45 40 34 32 31 23 30 35 20 18 24 26
44 43 46 45 44 42 41 36 34 32 28 27 24 24 20 22 17 15 17 12 3 12 20 24 24 24 20 17 17 17 21 30 40 46 40 34 33 29 27 19 19 23 23 27
52 55 49 44 46 44 40 36 32 32 30 29 28 25 25 22 20 18 16 11 5 13 19 27 34 26 24 17 12 14 15 19 31 36 36 34 32 29 21 22 25 26 23 29
54 52 51 51 46 41 38 36 33 34 32 29 32 26 24 23 18 19 18 15 11 16 12 25 38 32 27 16 7 6 7 10 7 23 31 27 25 25 23 19 16 15 22 30
53 48 49 43 41 42 38 37 36 32 32 31 31 26 20 25 18 22 20 10 12 13 13 15 31 42 34 14 6 13 14 7 8 17 19 27 24 22 19 13 11 15 24 33
52 49 42 39 42 39 39 39 35 32 32 28 28 25 24 24 19 19 14 13 16 9 12 18 27 31 31 17 9 17 11 6 12 19 21 15 18 20 14 14 16 21 30 33
46 41 39 38 38 41 41 39 34 35 34 33 30 27 27 25 21 14 12 15 18 18 15 11 17 24 28 23 8 20 6 17 12 12 23 20 16 17 21 18 22 25 31 30
45 39 39 38 41 41 38 37 38 38 37 38 36 27 26 26 23 22 15 19 21 18 11 15 18 20 23 26 14 19 7 17 11 16 19 24 26 22 21 18 24 28 29 31
37 36 37 41 41 40 40 43 41 38 38 39 39 30 27 28 28 25 27 21 25 25 14 11 6 11 19 26 13 23 12 17 18 14 19 20 25 29 23 22 28 28 31 27
34 34 41 44 47 45 44 45 40 42 42 34 33 34 29 24 27 28 28 26 27 23 18 8 12 14 17 25 18 30 25 22 21 18 16 14 24 26 22 24 29 31 28 24
40 42 46 49 51 49 41 38 41 40 36 32 30 28 23 24 27 27 19 24 26 10 15 18 22 21 26 28 27 25 33 26 25 27 22 23 22 25 25 30 32 29 27 25
40 42 44 50 55 52 36 31 34 33 31 24 15 14 10 14 24 24 18 20 29 28 30 14 17 24 30 30 26 23 20 25 33 31 36 40 37 32 32 34 35 30 31 30
34 31 35 48 43 33 28 40 35 30 25 17 17 15 11 17 29 31 30 10 13 24 24 20 12 19 22 20 18 17 20 16 22 30 41 31 32 37 39 39 39 36 33 35
26 24 19 32 32 29 33 36 31 24 22 24 22 20 11 12 21 32 36 27 14 7 17 13 22 30 20 15 13 21 19 22 24 28 29 41 42 34 43 43 39 37 38 39
26 20 14 24 31 33 38 37 32 33 28 27 25 20 18 19 27 33 43 41 36 37 32 25 26 24 25 19 15 31 32 20 35 27 28 31 38 40 41 45 43 44 42 40
27 18 12 10 15 38 48 37 32 32 32 28 32 25 29 26 27 34 39 56 51 48 46 43 33 32 35 32 21 33 43 39 37 41 38 42 45 40 41 46 50 49 46 46
32 22 18 16 15 24 29 24 28 29 35 29 27 20 25 31 38 38 43 52 54 51 51 53 39 38 35 36 36 31 52 54 50 47 50 54 51 46 54 58 54 55 55 56
35 30 26 23 19 25 30 30 28 32 36 27 32 28 41 41 38 40 41 50 52 46 50 52 46 49 49 49 45 44 53 63 64 61 56 58 58 57 56 58 57 60 62 60
45 38 34 28 26 31 35 33 28 39 41 34 28 24 28 30 38 40 39 35 44 51 37 42 48 42 45 44 42 43 55 62 64 65 61 59 57 56 59 62 63 65 64 65
50 47 42 40 35 30 31 32 39 37 31 31 26 22 29 36 36 38 35 30 28 29 31 30 33 32 35 36 35 34 38 45 57 61 64 62 60 59 61 61 61 64 66 68
Wind_Direction
251 247 254 267 252 263 272 277 279 277 277 281 280 281 288 295 301 301 296 282 292 303 321 321 306 269 230 215 202 200 206 217 259 281 238 238 260 261 255 247 272 293 318 311
245 247 256 254 251 266 279 282 271 272 278 281 282 282 283 297 295 294 296 309 307 317 338 337 305 261 226 210 206 210 196 208 248 256 253 230 226 224 210 230 248 291 315 318
254 242 243 247 254 269 275 278 272 267 274 277 280 284 289 286 298 298 310 315 308 307 335 345 317 299 242 220 215 215 207 204 218 233 205 203 212 223 209 256 275 268 291 308
245 243 238 245 260 266 270 270 264 266 276 279 285 288 290 301 323 311 308 294 304 309 334 331 326 328 289 237 228 222 216 206 204 194 222 215 209 221 236 253 270 279 286 294
236 244 253 254 253 258 268 263 261 267 270 276 276 286 299 311 337 298 291 287 312 332 319 333 317 317 308 261 237 229 222 211 193 197 192 214 221 223 241 259 276 286 290 288
233 241 246 247 250 261 266 264 262 266 267 271 278 281 291 306 297 294 278 291 319 311 339 328 302 299 307 277 251 242 230 219 203 202 202 214 221 238 252 263 270 287 294 294
234 236 234 243 254 258 262 264 263 261 264 270 277 282 292 296 304 309 291 292 1 4 321 331 321 317 315 305 263 246 238 227 217 210 209 222 232 248 259 264 288 298 303 312
238 237 240 243 251 255 264 260 257 261 264 267 269 276 287 297 298 299 298 328 83 33 26 3 0 339 334 325 284 252 238 232 224 219 221 232 235 255 282 283 284 286 320 317
233 237 248 250 258 262 259 252 256 259 262 264 268 269 269 276 294 306 296 279 203 306 1 18 1 342 348 328 293 254 233 223 225 230 240 246 251 265 273 279 289 303 305 318
235 240 243 251 254 252 251 253 254 256 261 264 266 268 273 277 284 281 272 266 275 271 321 8 345 348 344 332 312 241 187 167 221 249 245 251 260 264 262 289 283 301 309 311
236 242 246 245 249 249 249 252 256 257 259 263 271 273 267 266 285 276 280 286 328 291 279 312 331 328 340 330 286 164 168 172 226 270 257 253 259 258 267 270 277 299 302 310
238 240 239 243 245 251 251 255 251 256 260 261 266 280 274 274 284 289 272 255 249 302 331 297 322 323 338 323 279 178 178 229 246 258 269 257 247 234 248 263 276 288 311 310
237 236 239 242 247 250 254 255 257 257 260 265 266 267 270 270 282 258 249 222 218 268 244 278 307 330 336 329 257 184 164 246 256 268 273 261 250 248 258 266 276 292 307 306
242 236 239 241 245 248 252 257 256 258 261 266 268 265 263 261 254 219 216 205 235 225 239 285 295 295 337 332 271 189 225 217 270 266 268 269 261 261 265 266 275 286 294 299
239 236 236 240 245 250 254 258 262 263 263 266 269 266 256 252 241 224 227 238 234 237 272 280 332 312 331 335 268 209 254 241 232 265 268 277 280 279 271 263 272 282 291 290
232 236 240 246 250 250 252 259 263 262 258 265 264 260 252 243 227 224 225 240 223 235 272 304 272 308 315 324 301 223 227 254 242 257 276 305 286 278 256 257 273 277 282 279
237 239 243 249 254 256 255 254 253 259 261 253 246 254 251 220 217 221 224 220 232 248 278 277 289 292 298 315 286 247 225 252 278 263 285 290 288 270 262 263 267 271 279 271
238 246 249 249 246 248 217 224 234 231 246 243 241 249 254 236 222 221 214 247 241 252 268 259 321 300 281 285 272 248 254 262 255 267 266 275 277 265 265 263 261 263 270 272
247 256 261 245 237 227 243 226 226 225 227 236 235 224 201 208 214 222 210 219 222 223 254 265 263 277 297 288 265 217 226 247 272 276 261 266 266 262 260 261 264 272 271 274
255 264 282 246 232 226 236 234 222 220 223 232 212 194 219 211 221 232 216 226 233 246 247 247 246 259 272 318 283 202 201 247 265 249 259 262 259 265 262 259 263 273 275 274
255 268 278 255 240 226 235 240 218 212 224 225 212 211 215 251 230 229 222 223 236 246 258 273 270 272 289 302 284 214 218 250 250 250 237 252 256 260 264 261 265 263 269 273
250 260 265 262 237 224 234 228 211 219 224 222 227 226 245 243 246 255 251 233 231 242 256 266 279 281 292 288 278 229 226 235 248 237 245 255 251 248 253 257 258 264 265 266
242 249 249 242 220 217 226 222 215 228 226 219 206 244 244 247 243 261 265 251 244 252 264 265 269 270 269 272 276 260 229 231 239 243 246 249 253 252 256 260 263 266 268 270
243 241 244 240 229 222 232 233 223 222 223 205 205 221 226 238 251 271 269 257 255 258 262 264 271 276 277 280 279 265 243 234 237 241 248 250 255 258 262 263 267 268 269 271
238 241 239 237 229 230 228 231 224 215 213 221 231 242 250 251 246 263 261 261 256 251 264 260 267 277 278 281 281 269 250 238 240 244 246 250 257 264 267 266 264 266 269 272
239 236 238 238 235 229 226 222 211 208 204 217 229 249 261 266 265 263 263 251 256 257 257 257 263 271 280 282 281 276 265 250 246 247 251 252 257 261 264 266 267 269 271 273
Height
10922 10921 10920 10932 10931 10928 10933 10936 10938 10938 10938 10940 10941 10942 10939 10940 10938 10937 10934 10932 10930 10928 10925 10922 10920 10916 10919 10923 10924 10925 10922 10929 10931 10931 10935 10939 10938 10939 10938 10939 10942 10941 10940 10938
10913 10915 10922 10927 10924 10926 10927 10930 10934 10934 10931 10934 10935 10938 10941 10938 10935 10930 10927 10925 10923 10922 10920 10918 10915 10914 10911 10914 10914 10912 10915 10923 10927 10929 10930 10931 10931 10935 10934 10936 10936 10936 10936 10935
10909 10912 10917 10917 10919 10922 10924 10925 10928 10927 10926 10930 10930 10933 10935 10938 10934 10927 10923 10920 10918 10917 10914 10911 10909 10909 10909 10909 10909 10906 10909 10918 10923 10927 10929 10928 10927 10928 10928 10930 10931 10932 10931 10930
10904 10907 10909 10909 10914 10916 10919 10921 10920 10921 10922 10924 10927 10924 10929 10931 10928 10921 10916 10913 10912 10910 10905 10903 10899 10902 10903 10904 10904 10901 10902 10910 10916 10923 10926 10925 10926 10926 10926 10928 10928 10927 10927 10924
10897 10900 10903 10906 10909 10911 10913 10914 10912 10916 10917 10920 10923 10921 10922 10924 10924 10917 10913 10908 10905 10903 10901 10898 10896 10895 10897 10896 10897 10898 10898 10902 10907 10913 10918 10920 10923 10923 10924 10925 10925 10922 10921 10919
10888 10893 10897 10897 10902 10905 10908 10907 10907 10910 10911 10913 10916 10918 10916 10918 10918 10915 10912 10905 10902 10904 10897 10897 10895 10890 10892 10891 10890 10891 10894 10897 10902 10905 10909 10914 10917 10920 10921 10922 10922 10919 10917 10915
10877 10885 10888 10889 10895 10898 10900 10901 10901 10903 10906 10907 10911 10910 10909 10911 10909 10907 10906 10903 10902 10902 10899 10895 10892 10888 10886 10885 10884 10886 10888 10891 10896 10902 10905 10908 10911 10915 10916 10917 10915 10914 10913 10910
10872 10878 10876 10883 10887 10891 10892 10894 10894 10896 10901 10901 10904 10904 10904 10901 10900 10902 10900 10898 10896 10900 10896 10894 10889 10881 10881 10879 10878 10879 10883 10887 10895 10900 10902 10905 10908 10910 10911 10912 10911 10908 10906 10905
10861 10866 10871 10878 10878 10883 10883 10885 10890 10890 10893 10895 10894 10896 10895 10894 10898 10898 10893 10888 10889 10893 10890 10888 10885 10882 10874 10871 10871 10874 10879 10885 10894 10896 10900 10901 10904 10906 10909 10909 10907 10905 10903 10901
10853 10859 10865 10868 10873 10874 10876 10878 10882 10882 10885 10887 10884 10889 10889 10889 10890 10889 10888 10888 10889 10884 10882 10882 10884 10878 10872 10870 10868 10872 10878 10883 10890 10895 10896 10897 10901 10903 10905 10904 10904 10902 10901 10899
10846 10853 10857 10864 10864 10864 10869 10871 10873 10877 10878 10878 10877 10880 10884 10882 10884 10881 10881 10883 10883 10880 10877 10883 10884 10881 10873 10871 10867 10869 10876 10880 10881 10891 10891 10894 10897 10899 10900 10900 10900 10899 10900 10897
10838 10843 10850 10855 10853 10857 10860 10861 10866 10869 10870 10873 10872 10876 10876 10876 10878 10879 10878 10879 10878 10875 10875 10876 10879 10879 10873 10870 10870 10870 10876 10881 10883 10885 10889 10890 10892 10895 10897 10898 10898 10897 10895 10893
10829 10838 10842 10846 10848 10848 10851 10854 10860 10861 10863 10864 10866 10870 10869 10869 10871 10872 10870 10869 10868 10869 10868 10871 10877 10876 10873 10875 10875 10873 10877 10880 10880 10882 10886 10888 10891 10893 10893 10893 10893 10891 10889 10888
10819 10829 10833 10836 10836 10841 10844 10847 10850 10853 10855 10854 10853 10860 10862 10860 10859 10862 10863 10863 10864 10867 10868 10869 10870 10872 10871 10874 10877 10877 10876 10876 10878 10880 10881 10884 10886 10888 10888 10887 10887 10886 10884 10884
10813 10819 10824 10825 10828 10833 10836 10838 10840 10843 10844 10845 10841 10847 10850 10850 10851 10858 10865 10866 10867 10868 10869 10869 10869 10866 10867 10870 10872 10871 10874 10876 10876 10876 10878 10880 10880 10881 10882 10882 10882 10881 10881 10879
10806 10810 10812 10814 10816 10821 10826 10827 10830 10827 10828 10835 10834 10832 10838 10844 10847 10849 10852 10853 10860 10864 10864 10863 10864 10861 10865 10865 10868 10869 10871 10876 10879 10878 10881 10878 10874 10874 10875 10877 10878 10877 10876 10876
10796 10799 10802 10804 10805 10812 10818 10816 10813 10819 10825 10824 10825 10824 10828 10832 10832 10834 10841 10850 10853 10856 10858 10864 10860 10860 10860 10861 10865 10869 10871 10876 10878 10880 10879 10877 10874 10871 10872 10872 10872 10873 10872 10871
10785 10788 10791 10790 10792 10801 10806 10805 10806 10810 10814 10817 10823 10823 10826 10829 10831 10832 10837 10838 10836 10844 10849 10855 10856 10854 10854 10857 10859 10860 10865 10868 10872 10875 10875 10875 10873 10866 10862 10865 10865 10867 10868 10867
10776 10779 10779 10779 10785 10795 10798 10792 10796 10804 10808 10811 10814 10817 10818 10821 10825 10832 10834 10834 10836 10838 10841 10845 10851 10850 10852 10852 10851 10856 10858 10861 10863 10861 10866 10868 10861 10859 10858 10857 10858 10860 10861 10861
10767 10771 10771 10773 10780 10787 10783 10783 10793 10801 10802 10804 10809 10811 10811 10814 10820 10824 10828 10830 10827 10832 10839 10844 10841 10843 10849 10846 10849 10852 10857 10855 10853 10851 10854 10855 10854 10853 10851 10850 10850 10850 10852 10854
10758 10764 10765 10766 10773 10778 10776 10779 10785 10793 10796 10796 10801 10805 10802 10803 10806 10813 10820 10828 10826 10830 10833 10836 10837 10835 10838 10841 10845 10846 10846 10845 10842 10843 10846 10846 10844 10845 10842 10841 10841 10843 10843 10844
10755 10759 10761 10761 10763 10768 10763 10770 10777 10786 10790 10794 10795 10798 10799 10802 10804 10806 10810 10814 10819 10822 10825 10828 10828 10826 10826 10830 10836 10837 10837 10834 10834 10838 10838 10834 10835 10834 10834 10832 10832 10834 10833 10833
10748 10755 10756 10757 10758 10760 10762 10769 10777 10781 10783 10787 10790 10793 10794 10797 10801 10801 10802 10802 10806 10810 10812 10814 10817 10819 10820 10822 10823 10826 10826 10825 10827 10825 10822 10819 10821 10824 10823 10822 10822 10822 10822 10821
10742 10748 10751 10753 10757 10758 10759 10760 10766 10772 10775 10782 10789 10791 10794 10795 10796 10794 10793 10793 10794 10796 10799 10801 10803 10805 10810 10809 10809 10811 10812 10812 10811 10808 10804 10805 10807 10809 10811 10810 10809 10810 10809 10806
10734 10739 10743 10746 10750 10750 10752 10753 10758 10763 10769 10776 10782 10786 10789 10787 10786 10788 10785 10785 10785 10787 10790 10792 10794 10794 10797 10797 10792 10791 10791 10791 10792 10791 10791 10793 10794 10796 10796 10796 10796 10796 10794 10793
10722 10730 10733 10736 10740 10744 10746 10748 10749 10754 10762 10766 10769 10776 10779 10779 10778 10776 10775 10774 10775 10778 10780 10782 10786 10788 10787 10786 10784 10780 10777 10778 10779 10780 10781 10782 10783 10783 10783 10782 10783 10782 10780 10778